Time,TemperatureF,DewpointF,PressureIn,WindDirection,WindDirectionDegrees,WindSpeedMPH,WindSpeedGustMPH,Humidity,HourlyPrecipIn,Conditions,Clouds,dailyrainin,SoftwareType,DateUTC
2014-02-02 00:09:00,3.0,0.0,30.21,NNE,22,0.0,-999.0,87,-99.99,,,0.00,Acu-Link.com,2014-02-02 06:09:00,
2014-02-02 00:24:00,2.1,-0.9,30.21,SSE,157,0.0,-999.0,87,-99.99,,,0.00,Acu-Link.com,2014-02-02 06:24:00,
2014-02-02 00:39:00,1.2,-1.3,30.21,South,180,0.0,-999.0,89,-99.99,,,0.00,Acu-Link.com,2014-02-02 06:39:00,
2014-02-02 00:55:00,0.1,-2.4,30.21,WNW,292,0.0,-999.0,89,-99.99,,,0.00,Acu-Link.com,2014-02-02 06:55:00,
2014-02-02 01:10:00,-0.9,-4.1,30.21,WNW,292,0.0,-999.0,86,-99.99,,,0.00,Acu-Link.com,2014-02-02 07:10:00,
2014-02-02 01:25:00,-1.5,-4.9,30.21,SSW,202,0.0,-999.0,85,-99.99,,,0.00,Acu-Link.com,2014-02-02 07:25:00,
2014-02-02 01:40:00,0.9,-1.1,30.20,South,180,0.0,-999.0,91,-99.99,,,0.00,Acu-Link.com,2014-02-02 07:40:00,
2014-02-02 01:56:00,2.3,0.1,30.20,South,180,0.0,-999.0,90,-99.99,,,0.00,Acu-Link.com,2014-02-02 07:56:00,
2014-02-02 02:11:00,3.0,0.5,30.21,SSW,202,0.0,-999.0,89,-99.99,,,0.00,Acu-Link.com,2014-02-02 08:11:00,
2014-02-02 02:26:00,3.9,1.2,30.21,NNW,337,0.0,-999.0,88,-99.99,,,0.00,Acu-Link.com,2014-02-02 08:26:00,
2014-02-02 02:42:00,3.0,0.0,30.21,NE,45,0.0,-999.0,87,-99.99,,,0.00,Acu-Link.com,2014-02-02 08:42:00,
2014-02-02 02:57:00,1.4,-1.6,30.20,WSW,247,0.0,-999.0,87,-99.99,,,0.00,Acu-Link.com,2014-02-02 08:57:00,
2014-02-02 03:12:00,0.5,-2.2,30.20,South,180,0.0,-999.0,88,-99.99,,,0.00,Acu-Link.com,2014-02-02 09:12:00,
2014-02-02 03:27:00,-0.8,-4.0,30.20,West,270,0.0,-999.0,86,-99.99,,,0.00,Acu-Link.com,2014-02-02 09:27:00,
2014-02-02 03:43:00,-1.5,-4.6,30.21,North,0,0.0,-999.0,86,-99.99,,,0.00,Acu-Link.com,2014-02-02 09:43:00,
2014-02-02 03:58:00,-2.2,-5.3,30.21,East,90,0.0,-999.0,86,-99.99,,,0.00,Acu-Link.com,2014-02-02 09:58:00,
2014-02-02 04:13:00,-2.7,-5.8,30.21,NE,45,0.0,-999.0,86,-99.99,,,0.00,Acu-Link.com,2014-02-02 10:13:00,
2014-02-02 04:29:00,-3.3,-6.4,30.21,WSW,247,0.0,-999.0,86,-99.99,,,0.00,Acu-Link.com,2014-02-02 10:29:00,
2014-02-02 04:44:00,-4.2,-7.8,30.20,West,270,0.0,-999.0,84,-99.99,,,0.00,Acu-Link.com,2014-02-02 10:44:00,
2014-02-02 04:59:00,-2.6,-4.8,30.21,South,180,1.7,-999.0,90,-99.99,,,0.00,Acu-Link.com,2014-02-02 10:59:00,
2014-02-02 05:14:00,-3.6,-6.2,30.21,South,180,0.0,-999.0,88,-99.99,,,0.00,Acu-Link.com,2014-02-02 11:14:00,
2014-02-02 05:29:00,-3.5,-5.9,30.21,South,180,0.0,-999.0,89,-99.99,,,0.00,Acu-Link.com,2014-02-02 11:29:00,
2014-02-02 05:45:00,-4.4,-7.0,30.21,SSW,202,0.0,-999.0,88,-99.99,,,0.00,Acu-Link.com,2014-02-02 11:45:00,
2014-02-02 06:00:00,-4.7,-7.6,30.22,WNW,292,0.0,-999.0,87,-99.99,,,0.00,Acu-Link.com,2014-02-02 12:00:00,
2014-02-02 06:15:00,-3.1,-5.3,30.21,WSW,247,1.7,-999.0,90,-99.99,,,0.00,Acu-Link.com,2014-02-02 12:15:00,
2014-02-02 06:30:00,-3.5,-5.9,30.21,WSW,247,0.0,-999.0,89,-99.99,,,0.00,Acu-Link.com,2014-02-02 12:30:00,
2014-02-02 06:45:00,-4.9,-8.0,30.21,South,180,0.0,-999.0,86,-99.99,,,0.00,Acu-Link.com,2014-02-02 12:45:00,
2014-02-02 07:01:00,-4.5,-6.9,30.22,SW,225,0.0,-999.0,89,-99.99,,,0.00,Acu-Link.com,2014-02-02 13:01:00,
2014-02-02 07:16:00,-5.6,-8.4,30.20,North,0,0.0,-999.0,87,-99.99,,,0.00,Acu-Link.com,2014-02-02 13:16:00,
2014-02-02 07:31:00,-6.2,-9.0,30.20,North,0,0.0,-999.0,87,-99.99,,,0.00,Acu-Link.com,2014-02-02 13:31:00,
2014-02-02 07:46:00,-6.3,-9.1,30.21,South,180,0.0,-999.0,87,-99.99,,,0.00,Acu-Link.com,2014-02-02 13:46:00,
2014-02-02 08:02:00,-5.4,-7.6,30.22,SE,135,0.0,-999.0,90,-99.99,,,0.00,Acu-Link.com,2014-02-02 14:02:00,
2014-02-02 08:17:00,-2.6,-4.8,30.23,ESE,112,1.1,-999.0,90,-99.99,,,0.00,Acu-Link.com,2014-02-02 14:17:00,
2014-02-02 08:32:00,1.2,-1.3,30.23,South,180,2.7,-999.0,89,-99.99,,,0.00,Acu-Link.com,2014-02-02 14:32:00,
2014-02-02 08:48:00,3.2,0.0,30.23,South,180,2.7,-999.0,86,-99.99,,,0.00,Acu-Link.com,2014-02-02 14:48:00,
2014-02-02 09:03:00,4.8,0.8,30.22,SSE,157,2.2,-999.0,83,-99.99,,,0.00,Acu-Link.com,2014-02-02 15:03:00,
2014-02-02 09:18:00,7.2,1.5,30.22,SSE,157,1.1,-999.0,77,-99.99,,,0.00,Acu-Link.com,2014-02-02 15:18:00,
2014-02-02 09:34:00,8.2,1.9,30.23,WSW,247,3.2,-999.0,75,-99.99,,,0.00,Acu-Link.com,2014-02-02 15:34:00,
2014-02-02 09:49:00,8.1,1.8,30.23,SSW,202,2.2,-999.0,75,-99.99,,,0.00,Acu-Link.com,2014-02-02 15:49:00,
2014-02-02 10:04:00,10.0,3.1,30.23,SSE,157,3.2,-999.0,73,-99.99,,,0.00,Acu-Link.com,2014-02-02 16:04:00,
2014-02-02 10:19:00,10.6,3.4,30.22,SSW,202,3.7,-999.0,72,-99.99,,,0.00,Acu-Link.com,2014-02-02 16:19:00,
2014-02-02 10:34:00,12.4,4.5,30.21,ESE,112,2.7,-999.0,70,-99.99,,,0.00,Acu-Link.com,2014-02-02 16:34:00,
2014-02-02 10:50:00,13.5,5.3,30.22,SSE,157,4.7,-999.0,69,-99.99,,,0.00,Acu-Link.com,2014-02-02 16:50:00,
2014-02-02 11:05:00,14.5,5.9,30.22,SW,225,5.8,-999.0,68,-99.99,,,0.00,Acu-Link.com,2014-02-02 17:05:00,
2014-02-02 11:20:00,16.3,7.3,30.21,SSE,157,6.3,-999.0,67,-99.99,,,0.00,Acu-Link.com,2014-02-02 17:20:00,
2014-02-02 11:35:00,17.8,8.4,30.21,SW,225,3.2,-999.0,66,-99.99,,,0.00,Acu-Link.com,2014-02-02 17:35:00,
2014-02-02 11:50:00,19.4,7.4,30.21,WSW,247,3.2,-999.0,59,-99.99,,,0.00,Acu-Link.com,2014-02-02 17:50:00,
2014-02-02 12:05:00,19.6,6.5,30.19,SW,225,6.8,-999.0,56,-99.99,,,0.00,Acu-Link.com,2014-02-02 18:05:00,
2014-02-02 12:20:00,19.8,6.7,30.18,SSW,202,4.7,-999.0,56,-99.99,,,0.00,Acu-Link.com,2014-02-02 18:20:00,
2014-02-02 12:36:00,21.0,7.0,30.17,SSW,202,7.3,-999.0,54,-99.99,,,0.00,Acu-Link.com,2014-02-02 18:36:00,
2014-02-02 12:51:00,21.2,7.6,30.16,SE,135,5.8,-999.0,55,-99.99,,,0.00,Acu-Link.com,2014-02-02 18:51:00,
2014-02-02 13:06:00,21.9,8.6,30.15,South,180,10.9,-999.0,56,-99.99,,,0.00,Acu-Link.com,2014-02-02 19:06:00,
2014-02-02 13:21:00,23.2,9.5,30.13,South,180,5.3,-999.0,55,-99.99,,,0.00,Acu-Link.com,2014-02-02 19:21:00,
2014-02-02 13:36:00,23.4,8.4,30.13,ESE,112,8.9,-999.0,52,-99.99,,,0.00,Acu-Link.com,2014-02-02 19:36:00,
2014-02-02 13:51:00,24.4,9.8,30.13,SSW,202,8.9,-999.0,53,-99.99,,,0.00,Acu-Link.com,2014-02-02 19:51:00,
2014-02-02 14:07:00,25.2,10.1,30.12,SSW,202,8.9,-999.0,52,-99.99,,,0.00,Acu-Link.com,2014-02-02 20:07:00,
2014-02-02 14:58:00,26.6,10.9,30.12,SSE,157,5.3,-999.0,51,-99.99,,,0.00,Acu-Link.com,2014-02-02 20:58:00,
2014-02-02 15:14:00,27.1,11.4,30.16,SSW,202,5.3,-999.0,51,-99.99,,,0.00,Acu-Link.com,2014-02-02 21:14:00,
2014-02-02 15:29:00,27.3,12.0,30.14,SW,225,4.7,-999.0,52,-99.99,,,0.00,Acu-Link.com,2014-02-02 21:29:00,
2014-02-02 15:44:00,27.5,11.8,30.14,SSW,202,6.8,-999.0,51,-99.99,,,0.00,Acu-Link.com,2014-02-02 21:44:00,
2014-02-02 15:59:00,27.7,12.0,30.15,SSW,202,4.2,-999.0,51,-99.99,,,0.00,Acu-Link.com,2014-02-02 21:59:00,
2014-02-02 16:14:00,28.2,12.4,30.13,SSW,202,2.7,-999.0,51,-99.99,,,0.00,Acu-Link.com,2014-02-02 22:14:00,
2014-02-02 16:29:00,28.2,12.4,30.13,SSW,202,6.3,-999.0,51,-99.99,,,0.00,Acu-Link.com,2014-02-02 22:29:00,
2014-02-02 16:45:00,26.8,13.2,30.13,SE,135,3.7,-999.0,56,-99.99,,,0.00,Acu-Link.com,2014-02-02 22:45:00,
2014-02-02 17:00:00,26.6,13.0,30.13,SSE,157,2.7,-999.0,56,-99.99,,,0.00,Acu-Link.com,2014-02-02 23:00:00,
2014-02-02 17:15:00,26.2,13.5,30.13,SSE,157,2.7,-999.0,58,-99.99,,,0.00,Acu-Link.com,2014-02-02 23:15:00,
2014-02-02 17:31:00,24.8,13.3,30.12,SSE,157,2.7,-999.0,61,-99.99,,,0.00,Acu-Link.com,2014-02-02 23:31:00,
2014-02-02 17:46:00,23.2,12.1,30.12,ESE,112,2.7,-999.0,62,-99.99,,,0.00,Acu-Link.com,2014-02-02 23:46:00,
2014-02-02 18:01:00,21.6,12.0,30.13,ESE,112,3.7,-999.0,66,-99.99,,,0.00,Acu-Link.com,2014-02-03 00:01:00,
2014-02-02 18:17:00,19.9,11.1,30.12,ESE,112,3.2,-999.0,68,-99.99,,,0.00,Acu-Link.com,2014-02-03 00:17:00,
2014-02-02 18:32:00,18.9,10.8,30.12,ESE,112,3.7,-999.0,70,-99.99,,,0.00,Acu-Link.com,2014-02-03 00:32:00,
2014-02-02 18:47:00,17.8,10.3,30.13,SSE,157,3.2,-999.0,72,-99.99,,,0.00,Acu-Link.com,2014-02-03 00:47:00,
2014-02-02 19:02:00,17.1,10.0,30.13,ESE,112,3.2,-999.0,73,-99.99,,,0.00,Acu-Link.com,2014-02-03 01:02:00,
2014-02-02 19:18:00,17.1,10.0,30.12,SE,135,4.2,-999.0,73,-99.99,,,0.00,Acu-Link.com,2014-02-03 01:18:00,
2014-02-02 19:33:00,16.3,9.5,30.12,SE,135,3.7,-999.0,74,-99.99,,,0.00,Acu-Link.com,2014-02-03 01:33:00,
2014-02-02 19:48:00,15.6,9.1,30.12,ESE,112,4.7,-999.0,75,-99.99,,,0.00,Acu-Link.com,2014-02-03 01:48:00,
2014-02-02 20:03:00,15.1,8.9,30.12,SE,135,3.2,-999.0,76,-99.99,,,0.00,Acu-Link.com,2014-02-03 02:03:00,
2014-02-02 20:19:00,14.5,8.9,30.12,SE,135,2.7,-999.0,78,-99.99,,,0.00,Acu-Link.com,2014-02-03 02:19:00,
2014-02-02 20:34:00,14.2,8.6,30.11,East,90,1.7,-999.0,78,-99.99,,,0.00,Acu-Link.com,2014-02-03 02:34:00,
2014-02-02 20:49:00,14.0,8.7,30.11,SSE,157,3.2,-999.0,79,-99.99,,,0.00,Acu-Link.com,2014-02-03 02:49:00,
2014-02-02 21:05:00,15.8,10.2,30.11,SE,135,4.2,-999.0,78,-99.99,,,0.00,Acu-Link.com,2014-02-03 03:05:00,
2014-02-02 21:20:00,16.0,10.1,30.10,SSE,157,2.7,-999.0,77,-99.99,,,0.00,Acu-Link.com,2014-02-03 03:20:00,
2014-02-02 21:35:00,16.2,10.6,30.11,South,180,5.3,-999.0,78,-99.99,,,0.00,Acu-Link.com,2014-02-03 03:35:00,
2014-02-02 21:50:00,16.3,10.7,30.10,South,180,6.3,-999.0,78,-99.99,,,0.00,Acu-Link.com,2014-02-03 03:50:00,
2014-02-02 22:06:00,16.2,10.6,30.11,WSW,247,8.3,-999.0,78,-99.99,,,0.00,Acu-Link.com,2014-02-03 04:06:00,
2014-02-02 22:21:00,15.6,10.3,30.11,SSE,157,3.2,-999.0,79,-99.99,,,0.00,Acu-Link.com,2014-02-03 04:21:00,
2014-02-02 22:36:00,15.1,10.1,30.10,SSE,157,3.7,-999.0,80,-99.99,,,0.00,Acu-Link.com,2014-02-03 04:36:00,
2014-02-02 22:51:00,14.2,9.5,30.10,South,180,3.2,-999.0,81,-99.99,,,0.00,Acu-Link.com,2014-02-03 04:51:00,
2014-02-02 23:06:00,13.8,9.3,30.10,SW,225,2.2,-999.0,82,-99.99,,,0.00,Acu-Link.com,2014-02-03 05:06:00,
2014-02-02 23:22:00,13.5,9.0,30.10,SSW,202,3.7,-999.0,82,-99.99,,,0.00,Acu-Link.com,2014-02-03 05:22:00,
2014-02-02 23:37:00,13.5,9.0,30.10,SSE,157,5.3,-999.0,82,-99.99,,,0.00,Acu-Link.com,2014-02-03 05:37:00,
2014-02-02 23:52:00,12.9,9.0,30.10,South,180,3.2,-999.0,84,-99.99,,,0.00,Acu-Link.com,2014-02-03 05:52:00,